ロニオス-タッカー彗星

328P/LONEOS-Tucker (2024)

English version
Home page
Updated on November 27, 2024

---------------------------------------------------------------------

・ プロフィール

・ 写真集

・ 軌道要素

Epoch 2024 Mar. 31.0 TT = JDT 2460400.5
T 2024 July 27.97205 TT                                 Rudenko
q   1.8734197            (2000.0)            P               Q
n   0.11499806     Peri.   30.65074     +0.96960057     -0.22516905
a   4.1880229      Node   341.60989     +0.11232167     +0.75731402
e   0.5526721      Incl.   17.67354     +0.21739040     +0.61300439
P   8.57
>From 408 observations 1998 Aug. 27-2024 June 12, mean residual 1".0.

・ 光度変化

        m1 = 5.0 + 5 logΔ + 40.0 log r

---------------------------------------------------------------------

軌道要素はM.P.E.C. 2024-M41に掲載されたものです。
光度グラフはComet for Windowsで作成したものです。

---------------------------------------------------------------------

Copyright(C) Seiichi Yoshida (comet@aerith.net). All rights reserved.